SKW4002 KDFW-KIAH

Flight info

Callsign SKW4002
Flight time 0h 42m
Altitude 25000
Route DARTZ9 TORNN DRLLR5
Aircraft CRJ7/M-SDFGIRWY/S

Departure

Time 2026-05-05 03:59
Airport Dallas Fort Worth International Airport (KDFW)

Arrival

Time 2026-05-05 04:41
Airport George Bush Intercontinental Airport (KIAH)
Time Latitude Longitude Altitude Speed Heading
2026-05-05 03:24 32.88744 -97.03728 614 ft 0 kts 343°
2026-05-05 03:30 32.88743 -97.03728 614 ft 0 kts 343°
2026-05-05 03:43 32.88735 -97.03725 625 ft 3 kts 343°
2026-05-05 03:43 32.88717 -97.03719 618 ft 3 kts 343°
2026-05-05 03:44 32.88699 -97.03715 618 ft 3 kts
2026-05-05 03:44 32.88682 -97.03722 616 ft 3 kts 35°
2026-05-05 03:44 32.88681 -97.03723 626 ft 0 kts 37°
2026-05-05 03:47 32.88686 -97.03718 618 ft 2 kts 37°
2026-05-05 03:47 32.88696 -97.03704 621 ft 3 kts 57°
2026-05-05 03:47 32.88710 -97.03673 616 ft 5 kts 62°
2026-05-05 03:48 32.88731 -97.03628 616 ft 7 kts 58°
2026-05-05 03:48 32.88765 -97.03579 617 ft 8 kts 43°
2026-05-05 03:48 32.88812 -97.03533 614 ft 9 kts 37°
2026-05-05 03:48 32.88872 -97.03494 614 ft 11 kts 24°
2026-05-05 03:49 32.88941 -97.03459 625 ft 11 kts 24°
2026-05-05 03:49 32.89011 -97.03435 625 ft 9 kts
2026-05-05 03:49 32.89036 -97.03398 614 ft 3 kts 85°
2026-05-05 03:49 32.89037 -97.03390 614 ft 0 kts 87°
2026-05-05 03:50 32.89037 -97.03377 614 ft 3 kts 87°
2026-05-05 03:51 32.89044 -97.03342 619 ft 5 kts 49°
2026-05-05 03:51 32.89087 -97.03323 617 ft 9 kts
2026-05-05 03:51 32.89166 -97.03318 618 ft 14 kts 359°
2026-05-05 03:51 32.89268 -97.03318 621 ft 15 kts
2026-05-05 03:52 32.89377 -97.03317 618 ft 16 kts
2026-05-05 03:52 32.89492 -97.03317 618 ft 17 kts
2026-05-05 03:52 32.89614 -97.03317 620 ft 18 kts
2026-05-05 03:52 32.89742 -97.03316 618 ft 19 kts
2026-05-05 03:53 32.89875 -97.03315 617 ft 20 kts
2026-05-05 03:53 32.90014 -97.03314 620 ft 20 kts
2026-05-05 03:53 32.90159 -97.03313 619 ft 21 kts
2026-05-05 03:53 32.90307 -97.03313 632 ft 21 kts
2026-05-05 03:54 32.90459 -97.03313 614 ft 22 kts
2026-05-05 03:54 32.90611 -97.03311 618 ft 22 kts
2026-05-05 03:54 32.90761 -97.03310 621 ft 22 kts 360°
2026-05-05 03:54 32.90916 -97.03309 620 ft 19 kts
2026-05-05 03:55 32.91036 -97.03288 627 ft 17 kts 20°
2026-05-05 03:55 32.91157 -97.03275 619 ft 18 kts
2026-05-05 03:55 32.91279 -97.03275 621 ft 16 kts
2026-05-05 03:55 32.91392 -97.03273 614 ft 17 kts
2026-05-05 03:56 32.91479 -97.03251 614 ft 11 kts 50°
2026-05-05 03:56 32.91494 -97.03187 614 ft 6 kts 83°
2026-05-05 03:56 32.91492 -97.03137 618 ft 7 kts 94°
2026-05-05 03:56 32.91492 -97.03119 614 ft 0 kts 92°
2026-05-05 03:57 32.91492 -97.03118 614 ft 0 kts 92°
2026-05-05 03:57 32.91491 -97.03107 614 ft 3 kts 92°
2026-05-05 03:58 32.91490 -97.03074 614 ft 6 kts 92°
2026-05-05 03:58 32.91480 -97.03014 622 ft 9 kts 131°
2026-05-05 03:58 32.91414 -97.02992 614 ft 12 kts 179°
2026-05-05 03:58 32.91177 -97.02992 617 ft 63 kts 180°
2026-05-05 03:59 32.90550 -97.02995 626 ft 114 kts 180°
2026-05-05 03:59 32.89661 -97.02999 774 ft 134 kts 179°
2026-05-05 03:59 32.88711 -97.03000 1297 ft 135 kts 180°
2026-05-05 03:59 32.87790 -97.02972 1997 ft 128 kts 183°
2026-05-05 04:00 32.86875 -97.02926 2528 ft 142 kts 182°
2026-05-05 04:00 32.86195 -97.02903 2830 ft 152 kts 184°
2026-05-05 04:00 32.85108 -97.02884 3457 ft 160 kts 186°
2026-05-05 04:00 32.83943 -97.02885 3968 ft 178 kts 186°
2026-05-05 04:01 32.82666 -97.02921 4671 ft 186 kts 187°
2026-05-05 04:01 32.81339 -97.02965 5329 ft 197 kts 187°
2026-05-05 04:01 32.79899 -97.03025 5865 ft 216 kts 187°
2026-05-05 04:01 32.78336 -97.03064 6421 ft 233 kts 186°
2026-05-05 04:02 32.76693 -97.03066 7168 ft 236 kts 185°
2026-05-05 04:02 32.75035 -97.03050 7823 ft 246 kts 185°
2026-05-05 04:02 32.73293 -97.03025 8501 ft 254 kts 185°
2026-05-05 04:02 32.71513 -97.03015 9256 ft 257 kts 185°
2026-05-05 04:03 32.69665 -97.02780 9756 ft 278 kts 172°
2026-05-05 04:03 32.67828 -97.01934 10467 ft 288 kts 157°
2026-05-05 04:03 32.66052 -97.00778 11082 ft 298 kts 156°
2026-05-05 04:03 32.64165 -96.99593 11486 ft 314 kts 159°
2026-05-05 04:04 32.62168 -96.98494 12167 ft 318 kts 161°
2026-05-05 04:04 32.60119 -96.97460 12871 ft 322 kts 163°
2026-05-05 04:04 32.58020 -96.96464 13551 ft 327 kts 163°
2026-05-05 04:04 32.55896 -96.95433 14201 ft 332 kts 162°
2026-05-05 04:05 32.53782 -96.94362 14841 ft 336 kts 162°
2026-05-05 04:05 32.51627 -96.93231 15490 ft 341 kts 161°
2026-05-05 04:05 32.49453 -96.92057 16125 ft 346 kts 161°
2026-05-05 04:05 32.47239 -96.90878 16741 ft 350 kts 162°
2026-05-05 04:06 32.45000 -96.89706 17330 ft 354 kts 162°
2026-05-05 04:06 32.42731 -96.88518 17900 ft 359 kts 162°
2026-05-05 04:06 32.40431 -96.87313 18422 ft 364 kts 162°
2026-05-05 04:06 32.38104 -96.86094 18909 ft 368 kts 163°
2026-05-05 04:07 32.35751 -96.84861 19400 ft 372 kts 163°
2026-05-05 04:07 32.33374 -96.83616 19893 ft 376 kts 163°
2026-05-05 04:07 32.30973 -96.82360 20374 ft 380 kts 163°
2026-05-05 04:07 32.28544 -96.81095 20867 ft 382 kts 164°
2026-05-05 04:08 32.26056 -96.79992 21340 ft 381 kts 169°
2026-05-05 04:08 32.23520 -96.79057 21821 ft 383 kts 171°
2026-05-05 04:08 32.20962 -96.78132 22281 ft 386 kts 170°
2026-05-05 04:08 32.18418 -96.77186 22746 ft 390 kts 169°
2026-05-05 04:09 32.15827 -96.76187 23205 ft 393 kts 169°
2026-05-05 04:09 32.13224 -96.75161 23611 ft 396 kts 169°
2026-05-05 04:09 32.10600 -96.74111 23979 ft 399 kts 169°
2026-05-05 04:09 32.07955 -96.73073 24346 ft 402 kts 169°
2026-05-05 04:10 32.05279 -96.72035 24602 ft 409 kts 169°
2026-05-05 04:10 32.02542 -96.70973 24732 ft 419 kts 169°
2026-05-05 04:10 31.99727 -96.69878 24791 ft 432 kts 169°
2026-05-05 04:10 31.96829 -96.68753 24821 ft 443 kts 169°
2026-05-05 04:11 31.93856 -96.67598 24844 ft 455 kts 169°
2026-05-05 04:11 31.90843 -96.66429 24851 ft 467 kts 168°
2026-05-05 04:11 31.87721 -96.65219 24852 ft 478 kts 168°
2026-05-05 04:11 31.84528 -96.63983 24866 ft 488 kts 168°
2026-05-05 04:12 31.81268 -96.62720 24875 ft 495 kts 168°
2026-05-05 04:12 31.77983 -96.61448 24880 ft 500 kts 168°
2026-05-05 04:12 31.74662 -96.60166 24880 ft 505 kts 168°
2026-05-05 04:12 31.71308 -96.58873 24885 ft 509 kts 168°
2026-05-05 04:13 31.67918 -96.57567 24887 ft 513 kts 168°
2026-05-05 04:13 31.64512 -96.56256 24884 ft 517 kts 168°
2026-05-05 04:13 31.61134 -96.54954 24886 ft 516 kts 168°
2026-05-05 04:13 31.57725 -96.53642 24880 ft 514 kts 168°
2026-05-05 04:14 31.54322 -96.52335 24877 ft 513 kts 168°
2026-05-05 04:14 31.50958 -96.50947 24868 ft 515 kts 163°
2026-05-05 04:14 31.47719 -96.49118 24861 ft 518 kts 156°
2026-05-05 04:14 31.44581 -96.47046 24859 ft 518 kts 155°
2026-05-05 04:15 31.41439 -96.44968 24861 ft 516 kts 156°
2026-05-05 04:15 31.38269 -96.42989 24863 ft 514 kts 158°
2026-05-05 04:15 31.35093 -96.41083 24853 ft 512 kts 158°
2026-05-05 04:15 31.31932 -96.39153 24855 ft 511 kts 157°
2026-05-05 04:16 31.28823 -96.37254 24857 ft 510 kts 158°
2026-05-05 04:16 31.25681 -96.35336 24859 ft 509 kts 158°
2026-05-05 04:16 31.22542 -96.33424 24857 ft 508 kts 158°
2026-05-05 04:16 31.19409 -96.31514 24862 ft 507 kts 158°
2026-05-05 04:17 31.16283 -96.29611 24861 ft 507 kts 158°
2026-05-05 04:17 31.13149 -96.27708 24756 ft 508 kts 158°
2026-05-05 04:17 31.10011 -96.25801 24520 ft 510 kts 157°
2026-05-05 04:17 31.06852 -96.23879 24207 ft 513 kts 157°
2026-05-05 04:18 31.03716 -96.21975 23902 ft 503 kts 158°
2026-05-05 04:18 31.00636 -96.20105 23603 ft 495 kts 157°
2026-05-05 04:18 30.97606 -96.18247 23217 ft 489 kts 156°
2026-05-05 04:18 30.94636 -96.16355 22827 ft 484 kts 155°
2026-05-05 04:19 30.91706 -96.14460 22435 ft 479 kts 156°
2026-05-05 04:19 30.88798 -96.12589 22044 ft 474 kts 156°
2026-05-05 04:19 30.85914 -96.10741 21667 ft 471 kts 156°
2026-05-05 04:19 30.83067 -96.08889 21300 ft 467 kts 155°
2026-05-05 04:20 30.80267 -96.07048 20952 ft 455 kts 155°
2026-05-05 04:20 30.77578 -96.05279 20609 ft 443 kts 156°
2026-05-05 04:20 30.74912 -96.03567 20260 ft 433 kts 156°
2026-05-05 04:20 30.72297 -96.01892 19909 ft 424 kts 156°
2026-05-05 04:21 30.69738 -96.00253 19566 ft 416 kts 156°
2026-05-05 04:21 30.67222 -95.98641 19225 ft 411 kts 156°
2026-05-05 04:21 30.64721 -95.97040 18933 ft 409 kts 156°
2026-05-05 04:21 30.62229 -95.95446 18616 ft 407 kts 156°
2026-05-05 04:22 30.59758 -95.93868 18312 ft 404 kts 156°
2026-05-05 04:22 30.57302 -95.92297 17996 ft 402 kts 156°
2026-05-05 04:22 30.54858 -95.90734 17634 ft 400 kts 156°
2026-05-05 04:22 30.52425 -95.89178 17292 ft 398 kts 156°
2026-05-05 04:23 30.50007 -95.87633 16954 ft 396 kts 155°
2026-05-05 04:23 30.47695 -95.85897 16618 ft 396 kts 146°
2026-05-05 04:23 30.45600 -95.83873 16290 ft 385 kts 141°
2026-05-05 04:23 30.43650 -95.81825 15951 ft 372 kts 141°
2026-05-05 04:24 30.41755 -95.79835 15565 ft 363 kts 141°
2026-05-05 04:24 30.39911 -95.77947 15200 ft 354 kts 142°
2026-05-05 04:24 30.38059 -95.76120 14826 ft 346 kts 142°
2026-05-05 04:25 30.34449 -95.72595 14098 ft 334 kts 142°
2026-05-05 04:25 30.32679 -95.70879 13743 ft 330 kts 142°
2026-05-05 04:25 30.30928 -95.69185 13347 ft 326 kts 143°
2026-05-05 04:25 30.29198 -95.67513 12943 ft 322 kts 142°
2026-05-05 04:26 30.27495 -95.65868 12546 ft 316 kts 143°
2026-05-05 04:26 30.25817 -95.64248 12144 ft 311 kts 143°
2026-05-05 04:26 30.24170 -95.62662 11754 ft 306 kts 143°
2026-05-05 04:26 30.22546 -95.61104 11372 ft 301 kts 143°
2026-05-05 04:27 30.20952 -95.59579 10993 ft 299 kts 143°
2026-05-05 04:27 30.19362 -95.58050 10615 ft 295 kts 143°
2026-05-05 04:27 30.17796 -95.56545 10247 ft 290 kts 143°
2026-05-05 04:27 30.16248 -95.55058 9879 ft 291 kts 143°
2026-05-05 04:28 30.14686 -95.53555 9483 ft 293 kts 143°
2026-05-05 04:28 30.13118 -95.52044 9095 ft 293 kts 142°
2026-05-05 04:28 30.11572 -95.50555 8727 ft 285 kts 143°
2026-05-05 04:28 30.10093 -95.49081 8349 ft 278 kts 134°
2026-05-05 04:29 30.09231 -95.47131 7976 ft 273 kts 102°
2026-05-05 04:29 30.09071 -95.44977 7616 ft 267 kts 90°
2026-05-05 04:29 30.09123 -95.42885 7279 ft 260 kts 88°
2026-05-05 04:29 30.09203 -95.40821 7169 ft 250 kts 88°
2026-05-05 04:30 30.09263 -95.38856 7102 ft 241 kts 89°
2026-05-05 04:30 30.09279 -95.36926 7062 ft 243 kts 90°
2026-05-05 04:30 30.09269 -95.34961 7047 ft 246 kts 90°
2026-05-05 04:30 30.09265 -95.33003 7039 ft 243 kts 90°
2026-05-05 04:31 30.09262 -95.31041 7021 ft 245 kts 90°
2026-05-05 04:31 30.09265 -95.29069 7019 ft 246 kts 90°
2026-05-05 04:31 30.09277 -95.27116 6989 ft 235 kts 90°
2026-05-05 04:31 30.09296 -95.25262 6731 ft 229 kts 90°
2026-05-05 04:32 30.09315 -95.23415 6375 ft 233 kts 90°
2026-05-05 04:32 30.09338 -95.21523 5947 ft 238 kts 90°
2026-05-05 04:32 30.09367 -95.19605 5543 ft 239 kts 90°
2026-05-05 04:32 30.09402 -95.17686 5145 ft 239 kts 90°
2026-05-05 04:33 30.09445 -95.15772 4751 ft 236 kts 90°
2026-05-05 04:33 30.09492 -95.13900 4321 ft 230 kts 90°
2026-05-05 04:33 30.09547 -95.12077 3892 ft 225 kts 90°
2026-05-05 04:33 30.09615 -95.10315 3463 ft 221 kts 90°
2026-05-05 04:34 30.09698 -95.08577 3204 ft 213 kts 90°
2026-05-05 04:34 30.09658 -95.06898 3056 ft 205 kts 110°
2026-05-05 04:34 30.08792 -95.05697 2994 ft 200 kts 156°
2026-05-05 04:34 30.07412 -95.05435 3006 ft 205 kts 178°
2026-05-05 04:35 30.06017 -95.05379 2998 ft 198 kts 179°
2026-05-05 04:35 30.04645 -95.05365 2993 ft 196 kts 181°
2026-05-05 04:35 30.03273 -95.05371 2996 ft 199 kts 181°
2026-05-05 04:35 30.01941 -95.05732 2993 ft 201 kts 213°
2026-05-05 04:36 30.01092 -95.07021 3002 ft 205 kts 238°
2026-05-05 04:36 30.00407 -95.08471 3008 ft 203 kts 240°
2026-05-05 04:36 29.99800 -95.09903 3008 ft 198 kts 248°
2026-05-05 04:36 29.99531 -95.11469 3004 ft 201 kts 258°
2026-05-05 04:37 29.99378 -95.13078 2998 ft 203 kts 263°
2026-05-05 04:37 29.99317 -95.14688 3002 ft 203 kts 266°
2026-05-05 04:37 29.99324 -95.16261 2770 ft 190 kts 268°
2026-05-05 04:37 29.99344 -95.17697 2513 ft 167 kts 266°
2026-05-05 04:38 29.99355 -95.18955 2269 ft 151 kts 265°
2026-05-05 04:38 29.99357 -95.20176 2062 ft 153 kts 264°
2026-05-05 04:38 29.99348 -95.21406 1868 ft 151 kts 263°
2026-05-05 04:38 29.99348 -95.22599 1658 ft 149 kts 263°
2026-05-05 04:39 29.99341 -95.23791 1465 ft 144 kts 263°
2026-05-05 04:39 29.99343 -95.24925 1277 ft 139 kts 264°
2026-05-05 04:39 29.99344 -95.26053 1109 ft 144 kts 263°
2026-05-05 04:39 29.99338 -95.27199 950 ft 146 kts 263°
2026-05-05 04:40 29.99338 -95.28387 748 ft 150 kts 264°
2026-05-05 04:40 29.99332 -95.29588 622 ft 149 kts 264°
2026-05-05 04:40 29.99347 -95.30745 420 ft 139 kts 264°
2026-05-05 04:40 29.99345 -95.31850 230 ft 138 kts 263°
2026-05-05 04:41 29.99348 -95.32923 106 ft 124 kts 263°
2026-05-05 04:41 29.99342 -95.33733 105 ft 78 kts 270°
2026-05-05 04:41 29.99342 -95.34235 103 ft 52 kts 270°
2026-05-05 04:41 29.99342 -95.34543 105 ft 28 kts 267°
2026-05-05 04:42 29.99297 -95.34752 104 ft 24 kts 244°
2026-05-05 04:42 29.99239 -95.34874 105 ft 10 kts 239°
2026-05-05 04:42 29.99200 -95.34951 104 ft 11 kts 239°
2026-05-05 04:42 29.99176 -95.35030 105 ft 11 kts 266°
2026-05-05 04:43 29.99176 -95.35124 105 ft 13 kts 271°
2026-05-05 04:43 29.99177 -95.35227 105 ft 13 kts 264°
2026-05-05 04:43 29.99123 -95.35276 105 ft 11 kts 184°
2026-05-05 04:43 29.99041 -95.35277 105 ft 12 kts 180°
2026-05-05 04:44 29.98957 -95.35277 103 ft 12 kts 180°
2026-05-05 04:44 29.98892 -95.35267 105 ft 8 kts 142°
2026-05-05 04:44 29.98877 -95.35208 105 ft 9 kts 92°
2026-05-05 04:44 29.98878 -95.35138 105 ft 7 kts 88°
2026-05-05 04:45 29.98878 -95.35122 105 ft 0 kts 105°
2026-05-05 04:45 29.98877 -95.35121 105 ft 0 kts 115°
2026-05-05 04:45 29.98875 -95.35118 105 ft 1 kts 141°
2026-05-05 04:45 29.98867 -95.35115 103 ft 2 kts 169°
2026-05-05 04:46 29.98852 -95.35117 105 ft 3 kts 198°
2026-05-05 04:46 29.98849 -95.35118 105 ft 0 kts 198°